Hourly Data Report for October 09, 2015

All times are specified in Local Standard Time (LST). Add 1 hour to adjust for Daylight Saving Time where and when it is observed.

ARVIAT A
NUNAVUT

61°05'38.000" N
94°04'18.000" W
10.40 m
2300427
71174
YEK

Download Data

Hourly Data (October 2015)
Hourly Data Report for October 9, 2015
Temp Definition
°C
Dew Point Temp Definition
°C
Rel Hum Definition
%
Wind Dir Definition
10's deg

Wind Spd Definition
km/h
Visibility Definition
km
Stn Press Definition
kPa
Hmdx Definition


Wind Chill Definition


Weather Definition


TIME
00:00 Legend Double Dagger -4.1 -6.8 82 30 28 16.1 101.46   -12 LegendNANA
01:00 Legend Double Dagger -3.8 -6.0 85 31 30 16.1 101.49   -11 LegendNANA
02:00 Legend Double Dagger -4.1 -6.0 87 30 32 16.1 101.50   -12 LegendNANA
03:00 Legend Double Dagger -4.2 -6.1 87 30 30 16.1 101.48   -12 LegendNANA
04:00 Legend Double Dagger -4.1 -6.4 84 30 32 16.1 101.48   -12 LegendNANA
05:00 Legend Double Dagger -4.1 -6.8 82 30 30 16.1 101.48   -12 LegendNANA
06:00 Legend Double Dagger -3.8 -6.7 80 30 32 16.1 101.46   -12 LegendNANA
07:00 Legend Double Dagger -3.5 -6.3 81 30 32 16.1 101.43   -11 LegendNANA
08:00 Legend Double Dagger -3.6 -6.2 82 30 34 16.1 101.40   -12 LegendNANA
09:00 Legend Double Dagger -3.2 -5.9 82 30 26 16.1 101.38   -10 Snow
10:00 Legend Double Dagger -4.1 -5.6 90 30 26 11.3 101.38   -11 Snow
11:00 Legend Double Dagger -2.8 -5.8 80 30 22 16.1 101.34   -9 Snow
12:00 Legend Double Dagger -2.1 -6.7 71 31 28 16.1 101.33   -9 LegendNANA
13:00 Legend Double Dagger -1.6 -6.5 69 30 26 16.1 101.30   -8 LegendNANA
14:00 Legend Double Dagger -2.1 -4.5 84 31 32 4.8 101.25   -9 Snow
15:00 Legend Double Dagger -2.5 -5.5 80 32 34 6.4 101.25   -10 Snow
16:00 Legend Double Dagger -2.4 -7.4 69 32 32 16.1 101.26   -10 LegendNANA
17:00 Legend Double Dagger -2.4 -8.1 65 34 32 16.1 101.26   -10 LegendNANA
18:00 Legend Double Dagger -2.7 -7.5 70 33 30 16.1 101.27   -10 LegendNANA
19:00 Legend Double Dagger -4.1 -6.7 82 32 17 16.1 101.30   -10 LegendNANA
20:00 Legend Double Dagger -4.0 -7.6 76 33 22 16.1 101.30   -11 LegendNANA
21:00 Legend Double Dagger -4.0 -7.8 75 33 15 16.1 101.29   -9 LegendNANA
22:00 Legend Double Dagger -4.9 -7.9 79 36 21 16.1 101.27   -12 LegendNANA
23:00 Legend Double Dagger -5.6 -8.2 82 36 18 16.1 101.23   -12 LegendNANA

Notes on Data Quality.

Legend

  • E = Estimated
  • M = Missing
  • NA = Not Available
  • ‡ = Partner data that is not subject to review by the National Climate Archives
Date modified: